| time (UTC) | temp F | wind direction | speed knots | gust knots | rain 1hr in | rain 24hr in | rain mn in | humidity % | barometer mb |
| 20260507030047 | 43 | 268 | 4.3 | 7.8 | 0.00 | 0.36 | 0.33 | 81 | 1011.6 |
| 20260507024545 | 43 | 262 | 2.6 | 8.7 | 0.00 | 0.41 | 0.33 | 89 | 1011.5 |
| 20260507023044 | 43 | 271 | 5.2 | 9.6 | 0.00 | 0.41 | 0.33 | 89 | 1011.5 |
| 20260507021545 | 43 | 265 | 3.5 | 9.6 | 0.00 | 0.41 | 0.33 | 89 | 1011.3 |
| 20260507020055 | 43 | 275 | 5.2 | 8.7 | 0.00 | 0.41 | 0.33 | 90 | 1011.3 |
| 20260507014551 | 44 | 257 | 2.6 | 10.4 | 0.00 | 0.43 | 0.33 | 90 | 1011.5 |
| 20260507013051 | 44 | 266 | 2.6 | 7.8 | 0.00 | 0.43 | 0.33 | 91 | 1011.4 |
| 20260507011545 | 44 | 251 | 2.6 | 7.8 | 0.00 | 0.43 | 0.33 | 90 | 1011.2 |
| 20260507010054 | 44 | 242 | 1.7 | 8.7 | 0.00 | 0.43 | 0.33 | 90 | 1011.2 |
| 20260507004551 | 44 | 254 | 3.5 | 7.0 | 0.00 | 0.45 | 0.33 | 90 | 1011.2 |
| 20260507003039 | 44 | 250 | 2.6 | 7.8 | 0.00 | 0.45 | 0.33 | 89 | 1010.9 |
| 20260507001550 | 43 | 244 | 3.5 | 9.6 | 0.00 | 0.45 | 0.33 | 88 | 1011.0 |
| 20260507000045 | 43 | 262 | 4.3 | 9.6 | 0.00 | 0.45 | 0.33 | 88 | 1011.0 |
| 20260506234545 | 43 | 242 | 5.2 | 8.7 | 0.00 | 0.49 | 0.33 | 88 | 1010.8 |
| 20260506233056 | 44 | 284 | 3.5 | 11.3 | 0.00 | 0.49 | 0.33 | 89 | 1010.7 |
| 20260506231543 | 44 | 246 | 5.2 | 11.3 | 0.00 | 0.49 | 0.33 | 89 | 1010.4 |
| 20260506230053 | 44 | 246 | 6.1 | 11.3 | 0.00 | 0.49 | 0.33 | 89 | 1010.3 |
| 20260506224546 | 44 | 236 | 6.1 | 11.3 | 0.00 | 0.52 | 0.33 | 89 | 1010.3 |
| 20260506223044 | 44 | 249 | 3.5 | 9.6 | 0.00 | 0.52 | 0.33 | 89 | 1010.1 |
| 20260506221553 | 45 | 243 | 4.3 | 8.7 | 0.00 | 0.52 | 0.33 | 88 | 1009.9 |
| 20260506220044 | 45 | 261 | 4.3 | 10.4 | 0.00 | 0.52 | 0.33 | 88 | 1009.9 |
| 20260506214543 | 45 | 248 | 4.3 | 7.8 | 0.00 | 0.52 | 0.33 | 88 | 1010.0 |
| 20260506213038 | 47 | 234 | 3.5 | 7.8 | 0.00 | 0.52 | 0.33 | 87 | 1009.8 |
| 20260506211554 | 47 | 281 | 2.6 | 7.8 | 0.00 | 0.52 | 0.33 | 86 | 1009.7 |
| 20260506210045 | 47 | 252 | 2.6 | 9.6 | 0.00 | 0.52 | 0.33 | 86 | 1009.8 |
| 20260506204545 | 47 | 251 | 5.2 | 9.6 | 0.00 | 0.52 | 0.33 | 86 | 1009.6 |
| 20260506203043 | 48 | 240 | 5.2 | 9.6 | 0.00 | 0.52 | 0.33 | 88 | 1009.4 |
| 20260506201543 | 48 | 235 | 5.2 | 8.7 | 0.00 | 0.52 | 0.33 | 87 | 1009.3 |
| 20260506200050 | 48 | 224 | 4.3 | 7.8 | 0.00 | 0.52 | 0.33 | 86 | 1009.6 |
| 20260506194549 | 48 | 246 | 5.2 | 8.7 | 0.00 | 0.52 | 0.33 | 87 | 1009.5 |
| 20260506193044 | 48 | 232 | 5.2 | 9.6 | 0.00 | 0.52 | 0.33 | 86 | 1009.6 |
| 20260506191543 | 48 | 242 | 4.3 | 8.7 | 0.00 | 0.52 | 0.33 | 85 | 1009.6 |
| 20260506190044 | 49 | 303 | 0.9 | 3.5 | 0.00 | 0.52 | 0.33 | 82 | 1009.2 |
| 20260506184544 | 48 | 259 | 1.7 | 6.1 | 0.00 | 0.52 | 0.33 | 82 | 1009.5 |
| 20260506183039 | 48 | 0 | 0.9 | 6.1 | 0.00 | 0.52 | 0.33 | 82 | 1009.5 |
| 20260506181545 | 48 | 0 | 0.0 | 1.7 | 0.00 | 0.52 | 0.33 | 83 | 1009.8 |
| 20260506180046 | 48 | 14 | 0.9 | 3.5 | 0.00 | 0.52 | 0.33 | 82 | 1009.7 |
| 20260506174546 | 47 | 0 | 0.9 | 4.3 | 0.00 | 0.52 | 0.33 | 84 | 1009.6 |
| 20260506173049 | 47 | 352 | 0.9 | 4.3 | 0.00 | 0.52 | 0.33 | 87 | 1009.6 |
| 20260506171553 | 46 | 11 | 0.9 | 3.5 | 0.00 | 0.52 | 0.33 | 88 | 1009.8 |
| 20260506170059 | 46 | 352 | 0.9 | 3.5 | 0.00 | 0.52 | 0.33 | 88 | 1009.6 |
| 20260506164554 | 46 | 0 | 0.9 | 4.3 | 0.00 | 0.52 | 0.33 | 88 | 1009.5 |
| 20260506163045 | 46 | 30 | 1.7 | 4.3 | 0.00 | 0.52 | 0.33 | 88 | 1009.5 |
| 20260506161544 | 46 | 66 | 0.9 | 5.2 | 0.00 | 0.52 | 0.33 | 89 | 1009.4 |
| 20260506160049 | 46 | 20 | 1.7 | 7.0 | 0.00 | 0.52 | 0.33 | 90 | 1009.3 |
| 20260506154551 | 45 | 33 | 0.9 | 4.3 | 0.00 | 0.52 | 0.33 | 92 | 1009.5 |
| 20260506153046 | 44 | 21 | 2.6 | 6.1 | 0.00 | 0.52 | 0.33 | 93 | 1009.5 |
| 20260506151545 | 44 | 28 | 3.5 | 7.8 | 0.00 | 0.52 | 0.33 | 94 | 1009.6 |
| 20260506150045 | 44 | 33 | 2.6 | 8.7 | 0.00 | 0.52 | 0.33 | 94 | 1009.5 |
| 20260506144546 | 44 | 0 | 0.9 | 6.1 | 0.01 | 0.52 | 0.33 | 95 | 1009.4 |
| 20260506143042 | 43 | 54 | 0.0 | 3.5 | 0.01 | 0.52 | 0.33 | 96 | 1009.3 |
| 20260506141601 | 43 | 36 | 2.6 | 7.0 | 0.01 | 0.52 | 0.33 | 95 | 1009.3 |
| 20260506140048 | 43 | 69 | 1.7 | 7.0 | 0.01 | 0.52 | 0.33 | 96 | 1009.3 |
| 20260506134546 | 43 | 90 | 1.7 | 7.0 | 0.01 | 0.51 | 0.32 | 97 | 1009.1 |
| 20260506133045 | 43 | 90 | 2.6 | 5.2 | 0.02 | 0.51 | 0.32 | 97 | 1009.1 |
| 20260506131544 | 42 | 22 | 1.7 | 4.3 | 0.02 | 0.51 | 0.32 | 98 | 1009.0 |
| 20260506130045 | 42 | 60 | 0.9 | 4.3 | 0.04 | 0.51 | 0.32 | 98 | 1008.8 |
| 20260506124543 | 42 | 52 | 0.9 | 2.6 | 0.03 | 0.50 | 0.31 | 98 | 1008.9 |
| 20260506123042 | 42 | 0 | 0.0 | 1.7 | 0.02 | 0.49 | 0.30 | 98 | 1009.0 |
| 20260506121555 | 42 | 0 | 0.9 | 3.5 | 0.02 | 0.48 | 0.29 | 98 | 1009.1 |
| 20260506120109 | 42 | 61 | 1.7 | 3.5 | 0.01 | 0.47 | 0.28 | 98 | 1009.1 |
| 20260506114547 | 42 | 62 | 0.9 | 3.5 | 0.01 | 0.47 | 0.28 | 98 | 1009.2 |
| 20260506113044 | 42 | 42 | 0.0 | 2.6 | 0.02 | 0.47 | 0.28 | 98 | 1009.1 |
| 20260506111541 | 42 | 97 | 0.9 | 4.3 | 0.02 | 0.46 | 0.27 | 98 | 1008.6 |
| 20260506110048 | 42 | 120 | 0.9 | 3.5 | 0.02 | 0.46 | 0.27 | 98 | 1008.7 |
| 20260506104547 | 42 | 0 | 0.0 | 0.9 | 0.04 | 0.46 | 0.27 | 98 | 1009.0 |
| 20260506103044 | 42 | 0 | 0.0 | 0.0 | 0.04 | 0.45 | 0.26 | 98 | 1009.0 |
| 20260506101548 | 42 | 0 | 0.0 | 1.7 | 0.05 | 0.44 | 0.25 | 98 | 1009.0 |
| 20260506100054 | 42 | 0 | 0.0 | 0.9 | 0.06 | 0.44 | 0.25 | 98 | 1009.0 |
| 20260506094546 | 42 | 0 | 0.0 | 0.0 | 0.05 | 0.42 | 0.23 | 98 | 1009.1 |
| 20260506093051 | 42 | 0 | 0.0 | 0.0 | 0.04 | 0.40 | 0.21 | 98 | 1009.4 |
| 20260506091546 | 42 | 0 | 0.0 | 0.9 | 0.05 | 0.39 | 0.20 | 97 | 1009.3 |
| 20260506090045 | 42 | 0 | 0.0 | 0.0 | 0.06 | 0.38 | 0.19 | 98 | 1009.0 |
| 20260506084544 | 42 | 0 | 0.0 | 0.0 | 0.07 | 0.38 | 0.18 | 98 | 1009.2 |
| 20260506083045 | 42 | 0 | 0.0 | 0.0 | 0.09 | 0.37 | 0.17 | 98 | 1009.3 |
| 20260506081552 | 42 | 0 | 0.0 | 1.7 | 0.07 | 0.35 | 0.15 | 97 | 1009.2 |
| 20260506073050 | 42 | 0 | 0.0 | 0.0 | 0.02 | 0.29 | 0.08 | 97 | 1009.5 |
| 20260506071550 | 42 | 0 | 0.0 | 0.0 | 0.02 | 0.29 | 0.08 | 97 | 1009.5 |
| 20260506070109 | 42 | 0 | 0.0 | 1.7 | 0.01 | 0.28 | 0.07 | 97 | 1009.5 |
| 20260506061545 | 43 | 209 | 0.9 | 5.2 | 0.02 | 0.27 | 0.06 | 97 | 1009.9 |
| 20260506044556 | 43 | 188 | 2.6 | 7.8 | 0.04 | 0.31 | 0.03 | 97 | 1009.9 |
| 20260506043046 | 43 | 201 | 2.6 | 4.3 | 0.04 | 0.30 | 0.02 | 97 | 1009.7 |
| 20260506041551 | 43 | 209 | 0.9 | 4.3 | 0.04 | 0.29 | 0.01 | 97 | 1009.9 |
| 20260506040058 | 43 | 210 | 2.6 | 4.3 | 0.03 | 0.28 | 0.00 | 96 | 1009.9 |
| 20260506034549 | 43 | 207 | 1.7 | 5.2 | 0.03 | 0.27 | 0.27 | 96 | 1010.1 |
| 20260506033046 | 43 | 225 | 2.6 | 6.1 | 0.04 | 0.26 | 0.26 | 96 | 1010.3 |
| 20260506031556 | 43 | 216 | 3.5 | 7.0 | 0.04 | 0.25 | 0.25 | 96 | 1010.0 |